When you browse on this site, cookies collect data to enhance your experience and personalize the content and advertising you see.
Visit our Privacy Policy to learn more. By continuing to use the site, you agree to this use of cookies and data.
  • In Slovakia
  • List of Countries
  • For 7 days
  • Water Temperature
  • Weather Map
  • Weather Widgets
  • user-avatar
    Login

    Hourly Weather Nesebyr

    Today, 22 August, Thursday

    Time Temperature Precipitation Wind Pressure Humidity
    00:00 +24°C° 0 mm 2 mps 761 mmHg 72%
    01:00 +23°C° 0 mm 2 mps 760 mmHg 71%
    02:00 +23°C° 0 mm 2 mps 760 mmHg 69%
    03:00 +23°C° 0 mm 2 mps 760 mmHg 68%
    04:00 +23°C° 0 mm 2 mps 760 mmHg 67%
    05:00 +23°C° 0 mm 2 mps 760 mmHg 66%
    06:00 +25°C° 0 mm 2 mps 760 mmHg 57%
    07:00 +28°C° 0 mm 3 mps 761 mmHg 48%
    08:00 +30°C° 0 mm 3 mps 761 mmHg 39%
    09:00 +33°C° 0 mm 4 mps 761 mmHg 35%
    10:00 +35°C° 0 mm 6 mps 761 mmHg 30%
    11:00 +36°C° 0 mm 7 mps 761 mmHg 26%
    12:00 +36°C° 0 mm 7 mps 761 mmHg 26%
    13:00 +36°C° 0 mm 7 mps 761 mmHg 26%
    14:00 +38°C° 0 mm 7 mps 761 mmHg 26%
    15:00 +36°C° 0 mm 7 mps 761 mmHg 28%
    16:00 +35°C° 0 mm 7 mps 761 mmHg 31%
    17:00 +34°C° 0 mm 6 mps 760 mmHg 33%
    18:00 +30°C° 0 mm 5 mps 761 mmHg 44%
    19:00 +27°C° 0 mm 3 mps 761 mmHg 54%
    20:00 +25°C° 0 mm 1 mps 761 mmHg 65%
    21:00 +24°C° 0 mm 1 mps 761 mmHg 65%
    22:00 +24°C° 0 mm 2 mps 762 mmHg 65%
    23:00 +24°C° 0 mm 2 mps 762 mmHg 66%

    Tomorrow, 23 August, Friday

    Time Temperature Precipitation Wind Pressure Humidity
    00:00 +24°C° 0 mm 2 mps 762 mmHg 63%
    01:00 +24°C° 0 mm 3 mps 762 mmHg 60%
    02:00 +23°C° 0 mm 4 mps 761 mmHg 58%
    03:00 +23°C° 0 mm 4 mps 761 mmHg 62%
    04:00 +22°C° 0 mm 4 mps 761 mmHg 66%
    05:00 +22°C° 0 mm 4 mps 761 mmHg 70%
    06:00 +23°C° 0 mm 4 mps 761 mmHg 65%
    07:00 +26°C° 0 mm 4 mps 762 mmHg 60%
    08:00 +28°C° 0 mm 5 mps 762 mmHg 55%
    09:00 +30°C° 0 mm 5 mps 762 mmHg 49%
    10:00 +33°C° 0 mm 6 mps 762 mmHg 42%
    11:00 +35°C° 0 mm 6 mps 762 mmHg 36%
    12:00 +35°C° 0 mm 6 mps 761 mmHg 37%
    13:00 +36°C° 0 mm 7 mps 761 mmHg 37%
    14:00 +36°C° 0 mm 7 mps 761 mmHg 38%
    15:00 +35°C° 0 mm 7 mps 761 mmHg 41%
    16:00 +34°C° 0 mm 7 mps 760 mmHg 45%
    17:00 +33°C° 0 mm 7 mps 760 mmHg 48%
    18:00 +29°C° 0 mm 5 mps 761 mmHg 59%
    19:00 +27°C° 0 mm 4 mps 761 mmHg 71%
    20:00 +25°C° 0 mm 3 mps 761 mmHg 82%
    21:00 +24°C° 0 mm 3 mps 761 mmHg 84%
    22:00 +24°C° 0 mm 2 mps 761 mmHg 86%
    23:00 +24°C° 0 mm 2 mps 761 mmHg 88%

    Day after tomorrow, 24 August, Saturday

    Time Temperature Precipitation Wind Pressure Humidity
    00:00 +24°C° 0 mm 2 mps 761 mmHg 86%
    01:00 +24°C° 0 mm 2 mps 761 mmHg 85%
    02:00 +23°C° 0 mm 2 mps 761 mmHg 83%
    03:00 +23°C° 0 mm 2 mps 761 mmHg 82%
    04:00 +23°C° 0 mm 2 mps 761 mmHg 80%
    05:00 +23°C° 0 mm 2 mps 761 mmHg 78%
    06:00 +25°C° 0 mm 3 mps 761 mmHg 71%
    07:00 +27°C° 0 mm 4 mps 762 mmHg 64%
    08:00 +29°C° 0 mm 5 mps 762 mmHg 57%
    09:00 +30°C° 0 mm 6 mps 762 mmHg 52%
    10:00 +33°C° 0 mm 7 mps 762 mmHg 47%
    11:00 +35°C° 0 mm 7 mps 762 mmHg 41%
    12:00 +35°C° 0 mm 7 mps 762 mmHg 41%
    13:00 +35°C° 0 mm 7 mps 761 mmHg 40%
    14:00 +35°C° 0 mm 7 mps 761 mmHg 39%
    15:00 +34°C° 0 mm 7 mps 761 mmHg 42%
    16:00 +33°C° 0 mm 7 mps 761 mmHg 45%
    17:00 +32°C° 0 mm 7 mps 760 mmHg 48%
    18:00 +29°C° 0 mm 5 mps 761 mmHg 60%
    19:00 +26°C° 0 mm 4 mps 761 mmHg 72%
    20:00 +24°C° 0 mm 3 mps 761 mmHg 83%
    21:00 +24°C° 0 mm 2 mps 761 mmHg 85%
    22:00 +23°C° 0 mm 2 mps 761 mmHg 86%
    23:00 +23°C° 0 mm 2 mps 761 mmHg 88%

    25 August, Sunday

    Time Temperature Precipitation Wind Pressure Humidity
    00:00 +23°C° 0 mm 2 mps 761 mmHg 87%
    01:00 +23°C° 0 mm 2 mps 760 mmHg 86%
    02:00 +21°C° 0 mm 2 mps 760 mmHg 85%
    03:00 +21°C° 0 mm 2 mps 760 mmHg 83%
    04:00 +21°C° 0 mm 2 mps 760 mmHg 82%
    05:00 +21°C° 0 mm 2 mps 760 mmHg 80%
    06:00 +24°C° 0 mm 2 mps 760 mmHg 71%
    07:00 +26°C° 0 mm 2 mps 760 mmHg 62%
    08:00 +28°C° 0 mm 3 mps 760 mmHg 54%
    09:00 +30°C° 0 mm 4 mps 760 mmHg 47%
    10:00 +33°C° 0 mm 5 mps 760 mmHg 40%
    11:00 +35°C° 0 mm 6 mps 760 mmHg 33%
    12:00 +36°C° 0 mm 6 mps 760 mmHg 33%
    13:00 +36°C° 0 mm 6 mps 760 mmHg 34%
    14:00 +36°C° 0 mm 6 mps 759 mmHg 34%
    15:00 +35°C° 0 mm 6 mps 759 mmHg 40%
    16:00 +33°C° 0 mm 6 mps 759 mmHg 45%
    17:00 +32°C° 0 mm 6 mps 759 mmHg 51%
    18:00 +29°C° 0 mm 5 mps 759 mmHg 62%
    19:00 +26°C° 0 mm 4 mps 759 mmHg 74%
    20:00 +24°C° 0 mm 3 mps 760 mmHg 86%
    21:00 +24°C° 0 mm 2 mps 760 mmHg 88%
    22:00 +23°C° 0 mm 2 mps 760 mmHg 89%
    23:00 +23°C° 0 mm 2 mps 760 mmHg 91%

    26 August, Monday

    Time Temperature Precipitation Wind Pressure Humidity
    00:00 +23°C° 0 mm 2 mps 760 mmHg 90%
    01:00 +23°C° 0 mm 2 mps 760 mmHg 90%
    02:00 +21°C° 0 mm 2 mps 760 mmHg 89%
    03:00 +21°C° 0 mm 2 mps 760 mmHg 89%
    04:00 +21°C° 0 mm 2 mps 760 mmHg 88%
    05:00 +21°C° 0 mm 2 mps 760 mmHg 87%
    06:00 +24°C° 0 mm 3 mps 760 mmHg 79%
    07:00 +26°C° 0 mm 3 mps 761 mmHg 71%
    08:00 +27°C° 0 mm 4 mps 761 mmHg 63%
    09:00 +30°C° 0 mm 4 mps 761 mmHg 54%
    10:00 +33°C° 0 mm 5 mps 761 mmHg 45%
    11:00 +35°C° 0 mm 6 mps 761 mmHg 35%
    12:00 +35°C° 0 mm 6 mps 761 mmHg 34%
    13:00 +36°C° 0 mm 6 mps 760 mmHg 33%
    14:00 +36°C° 0 mm 6 mps 760 mmHg 32%
    15:00 +35°C° 0 mm 6 mps 760 mmHg 36%
    16:00 +34°C° 0 mm 6 mps 760 mmHg 40%
    17:00 +33°C° 0 mm 6 mps 760 mmHg 44%
    18:00 +29°C° 0 mm 5 mps 760 mmHg 57%
    19:00 +27°C° 0 mm 3 mps 761 mmHg 71%
    20:00 +24°C° 0 mm 2 mps 761 mmHg 85%
    21:00 +24°C° 0 mm 2 mps 761 mmHg 87%
    22:00 +24°C° 0 mm 2 mps 761 mmHg 89%
    23:00 +23°C° 0 mm 2 mps 761 mmHg 91%

    27 August, Tuesday

    Time Temperature Precipitation Wind Pressure Humidity
    00:00 +23°C° 0 mm 2 mps 761 mmHg 91%
    01:00 +23°C° 0 mm 2 mps 761 mmHg 92%
    02:00 +23°C° 0 mm 2 mps 761 mmHg 92%
    03:00 +21°C° 0 mm 2 mps 761 mmHg 92%
    04:00 +21°C° 0 mm 2 mps 761 mmHg 92%
    05:00 +21°C° 0 mm 2 mps 761 mmHg 91%
    06:00 +22°C° 0 mm 3 mps 761 mmHg 83%
    07:00 +25°C° 0 mm 3 mps 761 mmHg 75%
    08:00 +27°C° 0 mm 4 mps 761 mmHg 66%
    09:00 +29°C° 0 mm 5 mps 761 mmHg 58%
    10:00 +32°C° 0 mm 6 mps 761 mmHg 49%
    11:00 +33°C° 0 mm 7 mps 761 mmHg 41%
    12:00 +34°C° 0 mm 7 mps 761 mmHg 39%
    13:00 +34°C° 0 mm 7 mps 761 mmHg 38%
    14:00 +34°C° 0 mm 7 mps 760 mmHg 36%
    15:00 +33°C° 0 mm 7 mps 760 mmHg 42%
    16:00 +32°C° 0 mm 7 mps 760 mmHg 48%
    17:00 +29°C° 0 mm 7 mps 760 mmHg 54%
    18:00 +27°C° 0 mm 6 mps 760 mmHg 65%
    19:00 +25°C° 0 mm 4 mps 761 mmHg 76%
    20:00 +22°C° 0 mm 3 mps 761 mmHg 87%
    21:00 +22°C° 0 mm 3 mps 761 mmHg 88%
    22:00 +22°C° 0 mm 3 mps 761 mmHg 89%
    23:00 +21°C° 0 mm 2 mps 761 mmHg 90%
    Show more